Tracking 30918 objects as of 2-Jul-2025
HD Live streaming from Space Station
objects crossing your sky now

DELTA 1 DEB

Track DELTA 1 DEB now!
10-day predictions


NORAD ID: 21339
Int'l Code: 1975-052BH
Perigee: 1,085.5 km
Apogee: 1,661.1 km
Inclination: 99.5 °
Period: 113.0 minutes
Semi major axis: 7744 km
RCS: 0.0936 m2 (small)
Launch date: June 12, 1975
Source: United States (US)
Launch site: AIR FORCE WESTERN TEST RANGE (AFWTR)

Note: This is SATELLITE DEBRIS
Your satellite tracking list
Your tracking list is empty




NASA's NSSDC Master Catalog

Two Line Element Set (TLE):
1 21339U 75052BH  25182.01866075  .00000071  00000-0  39022-3 0  9995
2 21339  99.5447  10.7597 0371634 275.7076 246.5278 12.73883592584914
Source of the keplerian elements: AFSPC